Location: Le Domaine
(47.0333°N, 76.5361°W)
Time: 02:49:46
(UTC-05:00)

S-56A Canister/Altair - Pass Details

Date: 24 November 2019
Orbit: 633 x 2499 km, 38.9° (Epoch: 07 December)

Event Time Altitude Azimuth Distance (km) Brightness Sun altitude
Rises 15:30:38 0° 234° (SW) 5,885 14.7 6.5°
Reaches altitude 10° 15:35:03 10° 229° (SW) 4,672 14.8 5.9°
Maximum altitude 15:46:21 43° 165° (SSE) 2,215 10.2 4.4°
Drops below altitude 10° 15:54:13 10° 97° (E) 3,275 10.3 3.3°
Sets 15:56:46 0° 90° (E) 4,018 10.7 3.0°
